Weather History for Pittsburg, KS

Change the Weather History Date:

Wednesday, January 9, 2013

  Actual Average (KJLN) Record (KJLN)
Temperature  
Mean Temperature 48 °F 34 °F  
Max Temperature 55 °F 44 °F 67 °F (1963)
Min Temperature 40 °F 25 °F -3 °F (1977)
Degree Days  
Heating Degree Days 18 30  
Month to date heating degree days 270  
Since 1 July heating degree days 1887  
Cooling Degree Days 0 0  
Month to date cooling degree days 0  
Year to date cooling degree days 0  
Moisture  
Dew Point 37 °F    
Average Humidity 58    
Maximum Humidity 100    
Minimum Humidity 48    
Precipitation  
Precipitation 0.00 in 0.06 in 0.86 in (1984)
Month to date precipitation 0.63  
Year to date precipitation 0.63  
Sea Level Pressure  
Sea Level Pressure 30.31 in    
Wind  
Wind Speed 5 mph (ENE)    
Max Wind Speed 15 mph    
Max Gust Speed 20 mph    
Visibility 6 miles    
Events      
T = Trace of Precipitation, MM = Missing Value Source: NWS Daily Summary

Daily Weather History Graph

Daily Weather History Graph

Search for Another Location

Airport:

Trip Planner

Search our weather history database for the weather conditions in past years. The results will help you decide how hot, cold, wet, or windy it might be!

Date:

Astronomy

Jan. 09, 2013 Rise Set
Actual Time 7:33 AM CST 5:19 PM CST
Civil Twilight 7:04 AM CST 5:47 PM CST
Nautical Twilight 6:32 AM CST 6:20 PM CST
Astronomical Twilight 6:00 AM CST 6:51 PM CST
Moon 5:13 AM CST (1/9) 3:21 PM CST (1/9)
Length of Visible Light 10h 43m
Length of Day
9h 45m
Waning Crescent, 6% of the Moon is Illuminated
Jan 9
Waning Crescent
Jan 11
New
Jan 18
First Quarter
Jan 26
Full
Feb 3
Last Quarter

Hourly Weather History & Observations

Time (CST) Temp. Windchill Dew Point Humidity Pressure Visibility Wind Dir Wind Speed Gust Speed Precip Events Conditions
12:15 AM 46.6 °F - - N/A% 30.22 in 1.0 mi SW 3.5 mph - N/A   Overcast
12:35 AM 45.7 °F 42.7 °F - N/A% 30.22 in 0.5 mi WSW 5.8 mph - N/A   Overcast
12:55 AM 45.5 °F 44.2 °F - N/A% 30.22 in 0.5 mi West 3.5 mph - N/A   Overcast
1:15 AM 45.5 °F 44.2 °F - N/A% 30.24 in 0.2 mi West 3.5 mph - N/A   Overcast
1:35 AM 45.1 °F - - N/A% 30.24 in 0.2 mi Calm Calm - N/A   Overcast
1:55 AM 44.8 °F - - N/A% 30.24 in 0.2 mi Calm Calm - N/A   Overcast
2:15 AM 44.6 °F - - N/A% 30.24 in 0.2 mi Calm Calm - N/A   Overcast
2:35 AM 44.2 °F 42.7 °F - N/A% 30.25 in 0.2 mi West 3.5 mph - N/A   Overcast
2:55 AM 44.1 °F - - N/A% 30.25 in 0.2 mi Calm Calm - N/A   Overcast
3:15 AM 43.7 °F - - N/A% 30.25 in 0.2 mi Calm Calm - N/A   Overcast
3:35 AM 43.5 °F - - N/A% 30.25 in 0.2 mi Calm Calm - N/A   Overcast
3:55 AM 43.2 °F - - N/A% 30.26 in 0.2 mi Calm Calm - N/A   Overcast
4:15 AM 43.0 °F - - N/A% 30.26 in 0.2 mi Calm Calm - N/A   Overcast
4:35 AM 43.0 °F - - N/A% 30.25 in 0.2 mi Calm Calm - N/A   Overcast
4:55 AM 42.4 °F - - N/A% 30.25 in 0.2 mi Calm Calm - N/A   Overcast
5:15 AM 41.9 °F 39.0 °F - N/A% 30.26 in 0.2 mi NNE 4.6 mph - N/A   Overcast
5:35 AM 41.5 °F - - N/A% 30.27 in 0.2 mi Calm Calm - N/A   Overcast
5:55 AM 40.8 °F 38.8 °F - N/A% 30.28 in 0.2 mi NE 3.5 mph - N/A   Overcast
6:15 AM 40.6 °F 36.7 °F - N/A% 30.28 in 0.2 mi NE 5.8 mph - N/A   Overcast
6:35 AM 40.5 °F 37.3 °F - N/A% 30.29 in 0.5 mi East 4.6 mph - N/A   Overcast
6:55 AM 40.5 °F 35.8 °F - N/A% 30.30 in 0.5 mi NE 6.9 mph - N/A   Overcast
7:15 AM 40.5 °F 35.1 °F - N/A% 30.31 in 1.2 mi NE 8.1 mph - N/A   Overcast
7:35 AM 40.5 °F 35.1 °F - N/A% 30.31 in 1.2 mi NE 8.1 mph - N/A   Overcast
7:55 AM 40.5 °F 36.5 °F - N/A% 30.34 in 1.8 mi NE 5.8 mph - N/A   Overcast
8:15 AM 40.5 °F 33.6 °F - N/A% 30.34 in 2.0 mi NNE 11.5 mph - N/A   Unknown
8:35 AM 40.5 °F 34.6 °F - N/A% 30.35 in 1.5 mi NE 9.2 mph - N/A   Overcast
8:55 AM 40.5 °F - - N/A% 30.37 in 2.5 mi Calm Calm - N/A   Unknown
9:15 AM 40.5 °F 36.5 °F - N/A% 30.37 in 3.0 mi East 5.8 mph - N/A   Unknown
9:35 AM 40.5 °F 36.5 °F - N/A% 30.39 in 4.0 mi East 5.8 mph - N/A   Clear
9:55 AM 40.5 °F 35.8 °F - N/A% 30.39 in 3.0 mi East 6.9 mph - N/A   Unknown
10:15 AM 40.6 °F 35.4 °F - N/A% 30.38 in 3.0 mi East 8.1 mph - N/A   Unknown
10:35 AM 41.7 °F 38.0 °F - N/A% 30.38 in 4.0 mi ENE 5.8 mph - N/A   Clear
11:15 AM 43.0 °F 38.8 °F - N/A% 30.37 in 5.0 mi ENE 6.9 mph - N/A   Clear
11:35 AM 43.7 °F 39.7 °F 43.9 °F 100% 30.37 in 7.0 mi NE 6.9 mph - N/A   Clear
11:55 AM 44.8 °F 41.6 °F 44.8 °F 100% 30.37 in 7.0 mi East 5.8 mph - N/A   Clear
12:15 PM 46.9 °F - 44.6 °F 92% 30.36 in 10.0 mi East 6.9 mph - N/A   Clear
12:35 PM 49.8 °F - 45.0 °F 83% 30.35 in 10.0 mi East 6.9 mph - N/A   Clear
12:55 PM 50.9 °F - 43.3 °F 75% 30.35 in 10.0 mi East 8.1 mph - N/A   Clear
1:15 PM 50.9 °F - 40.6 °F 68% 30.33 in 10.0 mi East 10.4 mph - N/A   Clear
1:35 PM 52.3 °F - 40.3 °F 64% 30.33 in 10.0 mi ENE 8.1 mph - N/A   Clear
1:55 PM 55.2 °F - 40.6 °F 58% 30.33 in 10.0 mi East 9.2 mph - N/A   Clear
2:15 PM 55.8 °F - 39.2 °F 54% 30.33 in 10.0 mi ENE 10.4 mph - N/A   Clear
2:35 PM 55.8 °F - 38.1 °F 52% 30.32 in 10.0 mi ENE 12.7 mph - N/A   Clear
2:55 PM 55.8 °F - 37.8 °F 51% 30.32 in 10.0 mi ENE 10.4 mph - N/A   Clear
3:15 PM 55.8 °F - 37.2 °F 50% 30.33 in 10.0 mi ENE 11.5 mph 16.1 mph N/A   Clear
3:35 PM 55.8 °F - 37.2 °F 50% 30.33 in 10.0 mi ENE 9.2 mph - N/A   Clear
3:55 PM 55.8 °F - 36.9 °F 49% 30.33 in 10.0 mi ENE 10.4 mph - N/A   Clear
4:15 PM 55.8 °F - 36.1 °F 48% 30.34 in 10.0 mi ENE 6.9 mph - N/A   Clear
4:35 PM 55.8 °F - 37.2 °F 50% 30.33 in 10.0 mi ENE 6.9 mph - N/A   Clear
4:55 PM 55.8 °F - 37.8 °F 51% 30.33 in 5.0 mi ENE 6.9 mph - N/A   Clear
5:15 PM 54.1 °F - 37.4 °F 53% 30.33 in 10.0 mi ENE 5.8 mph - N/A   Clear
5:35 PM 52.5 °F - 36.7 °F 55% 30.34 in 10.0 mi NE 4.6 mph - N/A   Clear
5:55 PM 50.9 °F - 36.3 °F 57% 30.33 in 10.0 mi NE 6.9 mph - N/A   Clear
6:15 PM 50.9 °F - 36.9 °F 59% 30.33 in 10.0 mi NE 8.1 mph - N/A   Clear
6:35 PM 50.9 °F - 37.0 °F 59% 30.33 in 10.0 mi ENE 6.9 mph - N/A   Clear
6:55 PM 50.9 °F - 36.3 °F 57% 30.32 in 10.0 mi ENE 9.2 mph - N/A   Clear
7:15 PM 50.9 °F - 35.6 °F 56% 30.32 in 10.0 mi ENE 8.1 mph - N/A   Clear
7:35 PM 50.9 °F - 34.7 °F 54% 30.32 in 10.0 mi ENE 10.4 mph 17.3 mph N/A   Clear
7:55 PM 50.9 °F - 34.2 °F 53% 30.33 in 10.0 mi East 11.5 mph - N/A   Clear
8:35 PM 50.9 °F - 33.3 °F 51% 30.33 in 10.0 mi East 13.8 mph 18.4 mph N/A   Clear
8:55 PM 50.9 °F - 32.7 °F 50% 30.32 in 10.0 mi East 12.7 mph - N/A   Clear
9:15 PM 50.9 °F - 32.5 °F 49% 30.31 in 10.0 mi East 15.0 mph - N/A   Clear
9:35 PM 50.9 °F - 32.9 °F 50% 30.30 in 10.0 mi East 13.8 mph - N/A   Scattered Clouds
9:55 PM 50.9 °F - 34.0 °F 52% 30.29 in 10.0 mi East 13.8 mph 19.6 mph N/A   Scattered Clouds
10:15 PM 50.9 °F - 34.7 °F 54% 30.28 in 10.0 mi East 13.8 mph 19.6 mph N/A   Scattered Clouds
10:35 PM 50.9 °F - 34.9 °F 54% 30.29 in 10.0 mi East 15.0 mph 18.4 mph N/A   Scattered Clouds
10:55 PM 50.9 °F - 34.0 °F 52% 30.27 in 10.0 mi East 15.0 mph 19.6 mph N/A   Scattered Clouds
11:15 PM 50.9 °F - 33.3 °F 51% 30.27 in 10.0 mi East 12.7 mph - N/A   Mostly Cloudy
11:35 PM 50.9 °F - 33.3 °F 51% 30.27 in 10.0 mi East 15.0 mph - N/A   Scattered Clouds
11:55 PM 50.9 °F - 33.4 °F 51% 30.25 in 10.0 mi East 12.7 mph 18.4 mph N/A   Scattered Clouds